Time,TemperatureF,DewpointF,PressureIn,WindDirection,WindDirectionDegrees,WindSpeedMPH,WindSpeedGustMPH,Humidity,HourlyPrecipIn,Conditions,Clouds,dailyrainin,SoftwareType,DateUTC
2013-01-04 00:00:00,37.9,6.1,26.25,SSW,192,0.0,0.0,26,0.00,,,-99.99,VWS V12.07,2013-01-04 08:00:00,
2013-01-04 00:06:00,37.4,5.7,26.25,SSE,160,0.0,3.6,26,0.00,,,-99.99,VWS V12.07,2013-01-04 08:06:00,
2013-01-04 00:12:00,37.4,5.7,26.25,East,83,0.0,3.6,26,0.00,,,-99.99,VWS V12.07,2013-01-04 08:12:00,
2013-01-04 00:18:00,37.2,5.5,26.25,NE,37,4.8,4.9,26,0.00,,,-99.99,VWS V12.07,2013-01-04 08:18:00,
2013-01-04 00:24:00,37.4,5.7,26.25,ENE,78,3.2,7.6,26,0.00,,,-99.99,VWS V12.07,2013-01-04 08:24:00,
2013-01-04 00:30:00,36.7,5.0,26.25,East,95,2.7,7.6,26,0.00,,,-99.99,VWS V12.07,2013-01-04 08:30:00,
2013-01-04 00:36:00,36.1,4.6,26.25,East,95,0.0,7.6,26,0.00,,,-99.99,VWS V12.07,2013-01-04 08:36:00,
2013-01-04 00:42:00,36.3,4.7,26.25,East,95,0.0,0.0,26,0.00,,,-99.99,VWS V12.07,2013-01-04 08:42:00,
2013-01-04 00:48:00,36.5,4.9,26.25,East,95,0.0,4.0,26,0.00,,,-99.99,VWS V12.07,2013-01-04 08:48:00,
2013-01-04 00:54:00,36.9,5.2,26.25,NE,41,7.0,7.0,26,0.00,,,-99.99,VWS V12.07,2013-01-04 08:54:00,
2013-01-04 01:00:00,37.6,5.8,26.25,NNE,21,9.9,9.9,26,0.00,,,-99.99,VWS V12.07,2013-01-04 09:00:00,
2013-01-04 01:06:00,39.2,6.3,26.25,NNE,27,9.1,12.3,25,0.00,,,-99.99,VWS V12.07,2013-01-04 09:06:00,
2013-01-04 01:12:00,40.5,7.4,26.25,North,358,5.9,13.6,25,0.00,,,-99.99,VWS V12.07,2013-01-04 09:12:00,
2013-01-04 01:18:00,41.2,8.0,26.25,NNE,13,6.4,13.6,25,0.00,,,-99.99,VWS V12.07,2013-01-04 09:18:00,
2013-01-04 01:24:00,41.5,8.4,26.25,NE,37,13.2,13.2,25,0.00,,,-99.99,VWS V12.07,2013-01-04 09:24:00,
2013-01-04 01:30:00,41.5,8.4,26.25,NNE,28,7.0,11.0,25,0.00,,,-99.99,VWS V12.07,2013-01-04 09:30:00,
2013-01-04 01:36:00,41.2,8.0,26.25,NE,46,3.2,11.0,25,0.00,,,-99.99,VWS V12.07,2013-01-04 09:36:00,
2013-01-04 01:42:00,40.6,7.6,26.28,NNE,33,4.3,8.1,25,0.00,,,-99.99,VWS V12.07,2013-01-04 09:42:00,
2013-01-04 01:48:00,40.6,7.6,26.28,NE,46,7.5,8.1,25,0.00,,,-99.99,VWS V12.07,2013-01-04 09:48:00,
2013-01-04 01:54:00,40.1,7.1,26.28,NE,48,4.8,8.1,25,0.00,,,-99.99,VWS V12.07,2013-01-04 09:54:00,
2013-01-04 02:00:00,39.6,6.7,26.28,NE,36,6.4,8.1,25,0.00,,,-99.99,VWS V12.07,2013-01-04 10:00:00,
2013-01-04 02:06:00,38.8,6.9,26.28,NE,38,6.4,7.2,26,0.00,,,-99.99,VWS V12.07,2013-01-04 10:06:00,
2013-01-04 02:12:00,38.1,6.3,26.28,NE,41,5.9,7.2,26,0.00,,,-99.99,VWS V12.07,2013-01-04 10:12:00,
2013-01-04 02:18:00,37.0,5.3,26.28,NE,47,0.0,7.2,26,0.00,,,-99.99,VWS V12.07,2013-01-04 10:18:00,
2013-01-04 02:24:00,34.5,4.0,26.25,NE,35,4.8,4.8,27,0.00,,,-99.99,VWS V12.07,2013-01-04 10:24:00,
2013-01-04 02:30:00,33.6,3.2,26.25,NE,52,5.9,8.3,27,0.00,,,-99.99,VWS V12.07,2013-01-04 10:30:00,
2013-01-04 02:36:00,33.1,2.8,26.25,NE,45,0.0,8.3,27,0.00,,,-99.99,VWS V12.07,2013-01-04 10:36:00,
2013-01-04 02:42:00,31.8,1.7,26.25,NE,53,0.0,5.4,27,0.00,,,-99.99,VWS V12.07,2013-01-04 10:42:00,
2013-01-04 02:48:00,31.3,1.2,26.25,NE,52,0.0,5.4,27,0.00,,,-99.99,VWS V12.07,2013-01-04 10:48:00,
2013-01-04 02:54:00,30.7,0.7,26.25,NNE,19,5.9,6.3,27,0.00,,,-99.99,VWS V12.07,2013-01-04 10:54:00,
2013-01-04 03:00:00,30.7,-0.9,26.25,NE,45,2.7,2.7,25,0.00,,,-99.99,VWS V12.07,2013-01-04 11:00:00,
2013-01-04 03:06:00,32.5,0.6,26.25,NE,50,4.8,6.3,25,0.00,,,-99.99,VWS V12.07,2013-01-04 11:06:00,
2013-01-04 03:12:00,34.5,4.0,26.28,NE,56,0.0,6.3,27,0.00,,,-99.99,VWS V12.07,2013-01-04 11:12:00,
2013-01-04 03:18:00,35.6,4.1,26.28,NE,51,5.9,6.3,26,0.00,,,-99.99,VWS V12.07,2013-01-04 11:18:00,
2013-01-04 03:24:00,35.8,4.3,26.28,NE,55,4.8,4.8,26,0.00,,,-99.99,VWS V12.07,2013-01-04 11:24:00,
2013-01-04 03:30:00,36.1,4.6,26.28,NE,53,4.8,4.8,26,0.00,,,-99.99,VWS V12.07,2013-01-04 11:30:00,
2013-01-04 03:36:00,35.8,4.3,26.28,NE,43,0.0,5.4,26,0.00,,,-99.99,VWS V12.07,2013-01-04 11:36:00,
2013-01-04 03:42:00,35.1,4.5,26.28,NNE,29,4.3,4.3,27,0.00,,,-99.99,VWS V12.07,2013-01-04 11:42:00,
2013-01-04 03:48:00,34.9,4.3,26.28,NE,45,4.8,6.3,27,0.00,,,-99.99,VWS V12.07,2013-01-04 11:48:00,
2013-01-04 03:54:00,35.6,4.1,26.25,NNE,17,6.4,6.4,26,0.00,,,-99.99,VWS V12.07,2013-01-04 11:54:00,
2013-01-04 04:00:00,37.0,5.3,26.25,NNE,24,4.3,10.1,26,0.00,,,-99.99,VWS V12.07,2013-01-04 12:00:00,
2013-01-04 04:06:00,37.9,6.1,26.25,NNE,12,8.1,8.7,26,0.00,,,-99.99,VWS V12.07,2013-01-04 12:06:00,
2013-01-04 04:12:00,38.5,6.6,26.25,North,7,9.7,10.1,26,0.00,,,-99.99,VWS V12.07,2013-01-04 12:12:00,
2013-01-04 04:18:00,37.8,6.0,26.25,North,349,9.1,10.1,26,0.00,,,-99.99,VWS V12.07,2013-01-04 12:18:00,
2013-01-04 04:24:00,37.8,6.0,26.25,NE,54,0.0,8.1,26,0.00,,,-99.99,VWS V12.07,2013-01-04 12:24:00,
2013-01-04 04:30:00,37.4,5.7,26.25,NNW,337,0.0,8.1,26,0.00,,,-99.99,VWS V12.07,2013-01-04 12:30:00,
2013-01-04 04:36:00,37.0,5.3,26.25,South,182,0.0,8.1,26,0.00,,,-99.99,VWS V12.07,2013-01-04 12:36:00,
2013-01-04 04:42:00,36.5,4.9,26.25,South,183,0.0,0.0,26,0.00,,,-99.99,VWS V12.07,2013-01-04 12:42:00,
2013-01-04 04:48:00,35.6,4.1,26.25,South,183,0.0,0.0,26,0.00,,,-99.99,VWS V12.07,2013-01-04 12:48:00,
2013-01-04 04:54:00,35.4,4.8,26.25,South,183,0.0,0.0,27,0.00,,,-99.99,VWS V12.07,2013-01-04 12:54:00,
2013-01-04 05:00:00,35.2,4.6,26.25,NNE,15,0.0,5.4,27,0.00,,,-99.99,VWS V12.07,2013-01-04 13:00:00,
2013-01-04 05:06:00,35.1,4.5,26.25,SE,144,0.0,0.0,27,0.00,,,-99.99,VWS V12.07,2013-01-04 13:06:00,
2013-01-04 05:12:00,35.6,4.1,26.25,NE,35,0.0,4.9,26,0.00,,,-99.99,VWS V12.07,2013-01-04 13:12:00,
2013-01-04 05:18:00,35.8,4.3,26.25,North,2,0.0,4.9,26,0.00,,,-99.99,VWS V12.07,2013-01-04 13:18:00,
2013-01-04 05:24:00,35.8,4.3,26.25,NNE,16,2.7,5.8,26,0.00,,,-99.99,VWS V12.07,2013-01-04 13:24:00,
2013-01-04 05:30:00,36.0,4.4,26.25,NE,37,0.0,5.8,26,0.00,,,-99.99,VWS V12.07,2013-01-04 13:30:00,
2013-01-04 05:36:00,35.8,4.3,26.25,ENE,63,0.0,6.3,26,0.00,,,-99.99,VWS V12.07,2013-01-04 13:36:00,
2013-01-04 05:42:00,35.8,4.3,26.25,North,6,0.0,3.6,26,0.00,,,-99.99,VWS V12.07,2013-01-04 13:42:00,
2013-01-04 05:48:00,36.0,4.4,26.25,North,5,0.0,3.6,26,0.00,,,-99.99,VWS V12.07,2013-01-04 13:48:00,
2013-01-04 05:54:00,36.1,4.6,26.25,North,5,0.0,3.6,26,0.00,,,-99.99,VWS V12.07,2013-01-04 13:54:00,
2013-01-04 06:00:00,36.1,4.6,26.25,SSW,212,0.0,4.0,26,0.00,,,-99.99,VWS V12.07,2013-01-04 14:00:00,
2013-01-04 06:06:00,36.1,4.6,26.25,North,6,0.0,5.8,26,0.00,,,-99.99,VWS V12.07,2013-01-04 14:06:00,
2013-01-04 06:12:00,36.7,5.0,26.25,NNW,338,3.2,6.3,26,0.00,,,-99.99,VWS V12.07,2013-01-04 14:12:00,
2013-01-04 06:18:00,37.0,5.3,26.25,North,1,4.3,6.3,26,0.00,,,-99.99,VWS V12.07,2013-01-04 14:18:00,
2013-01-04 06:24:00,36.9,5.2,26.25,North,6,3.2,3.2,26,0.00,,,-99.99,VWS V12.07,2013-01-04 14:24:00,
2013-01-04 06:30:00,36.7,5.0,26.25,North,357,0.0,4.9,26,0.00,,,-99.99,VWS V12.07,2013-01-04 14:30:00,
2013-01-04 06:36:00,36.7,5.0,26.25,North,357,0.0,4.9,26,0.00,,,-99.99,VWS V12.07,2013-01-04 14:36:00,
2013-01-04 06:42:00,36.7,5.0,26.25,North,357,0.0,2.7,26,0.00,,,-99.99,VWS V12.07,2013-01-04 14:42:00,
2013-01-04 06:48:00,36.5,4.9,26.25,NNE,21,0.0,4.9,26,0.00,,,-99.99,VWS V12.07,2013-01-04 14:48:00,
2013-01-04 06:54:00,36.7,5.0,26.28,NNE,33,6.4,6.4,26,0.00,,,-99.99,VWS V12.07,2013-01-04 14:54:00,
2013-01-04 07:00:00,37.0,5.3,26.28,NE,37,3.8,6.3,26,0.00,,,-99.99,VWS V12.07,2013-01-04 15:00:00,
2013-01-04 07:06:00,36.9,5.2,26.28,NNE,31,4.3,6.3,26,0.00,,,-99.99,VWS V12.07,2013-01-04 15:06:00,
2013-01-04 07:12:00,36.7,5.0,26.28,NE,51,4.3,6.3,26,0.00,,,-99.99,VWS V12.07,2013-01-04 15:12:00,
2013-01-04 07:18:00,36.5,4.9,26.28,NE,54,4.3,6.3,26,0.00,,,-99.99,VWS V12.07,2013-01-04 15:18:00,
2013-01-04 07:24:00,36.7,5.0,26.28,ENE,59,3.8,3.8,26,0.00,,,-99.99,VWS V12.07,2013-01-04 15:24:00,
2013-01-04 07:30:00,36.7,5.0,26.28,NNE,31,4.8,5.4,26,0.00,,,-99.99,VWS V12.07,2013-01-04 15:30:00,
2013-01-04 07:36:00,36.7,5.0,26.28,NNE,14,4.3,6.7,26,0.00,,,-99.99,VWS V12.07,2013-01-04 15:36:00,
2013-01-04 07:42:00,36.9,5.2,26.28,NE,41,4.8,6.3,26,0.00,,,-99.99,VWS V12.07,2013-01-04 15:42:00,
2013-01-04 07:48:00,37.4,5.7,26.28,North,9,9.9,9.9,26,0.00,,,-99.99,VWS V12.07,2013-01-04 15:48:00,
2013-01-04 07:54:00,38.3,6.4,26.28,NNE,33,3.2,8.7,26,0.00,,,-99.99,VWS V12.07,2013-01-04 15:54:00,
2013-01-04 08:00:00,39.7,6.8,26.28,NNE,30,0.0,0.0,25,0.00,,,-99.99,VWS V12.07,2013-01-04 16:00:00,
2013-01-04 08:06:00,41.4,8.2,26.28,NNE,21,2.7,5.4,25,0.00,,,-99.99,VWS V12.07,2013-01-04 16:06:00,
2013-01-04 08:12:00,42.4,9.1,26.31,NNE,21,0.0,5.4,25,0.00,,,-99.99,VWS V12.07,2013-01-04 16:12:00,
2013-01-04 08:18:00,43.2,9.7,26.31,NNE,21,0.0,5.4,25,0.00,,,-99.99,VWS V12.07,2013-01-04 16:18:00,
2013-01-04 08:24:00,43.5,10.0,26.31,NNE,21,0.0,0.0,25,0.00,,,-99.99,VWS V12.07,2013-01-04 16:24:00,
2013-01-04 08:30:00,44.2,10.7,26.31,NNE,21,0.0,0.0,25,0.00,,,-99.99,VWS V12.07,2013-01-04 16:30:00,
2013-01-04 08:36:00,44.8,10.2,26.31,NNE,21,0.0,0.0,24,0.00,,,-99.99,VWS V12.07,2013-01-04 16:36:00,
2013-01-04 08:42:00,45.7,11.0,26.31,North,7,2.7,4.0,24,0.00,,,-99.99,VWS V12.07,2013-01-04 16:42:00,
2013-01-04 08:48:00,46.6,11.7,26.31,North,352,0.0,4.0,24,0.00,,,-99.99,VWS V12.07,2013-01-04 16:48:00,
2013-01-04 08:54:00,46.6,11.7,26.31,North,353,2.7,8.3,24,0.00,,,-99.99,VWS V12.07,2013-01-04 16:54:00,
2013-01-04 09:00:00,46.8,11.9,26.31,NNE,24,7.5,8.3,24,0.00,,,-99.99,VWS V12.07,2013-01-04 17:00:00,
2013-01-04 09:06:00,47.1,12.2,26.31,North,358,7.5,8.7,24,0.00,,,-99.99,VWS V12.07,2013-01-04 17:06:00,
2013-01-04 09:12:00,47.3,12.4,26.31,North,9,9.7,9.7,24,0.00,,,-99.99,VWS V12.07,2013-01-04 17:12:00,
2013-01-04 09:18:00,47.5,12.5,26.31,NNE,18,7.5,9.6,24,0.00,,,-99.99,VWS V12.07,2013-01-04 17:18:00,
2013-01-04 09:24:00,47.7,12.7,26.31,NNW,332,2.7,7.6,24,0.00,,,-99.99,VWS V12.07,2013-01-04 17:24:00,
2013-01-04 09:30:00,48.2,12.1,26.31,NNE,13,7.0,8.3,23,0.00,,,-99.99,VWS V12.07,2013-01-04 17:30:00,
2013-01-04 09:36:00,48.6,12.5,26.31,North,352,4.3,8.3,23,0.00,,,-99.99,VWS V12.07,2013-01-04 17:36:00,
2013-01-04 09:42:00,48.9,12.8,26.31,North,4,7.0,7.0,23,0.00,,,-99.99,VWS V12.07,2013-01-04 17:42:00,
2013-01-04 09:48:00,49.5,13.2,26.31,North,353,5.9,6.3,23,0.00,,,-99.99,VWS V12.07,2013-01-04 17:48:00,
2013-01-04 09:54:00,50.0,13.7,26.31,NNE,20,6.4,6.4,23,0.00,,,-99.99,VWS V12.07,2013-01-04 17:54:00,
2013-01-04 10:00:00,50.5,14.1,26.31,NNE,13,0.0,6.3,23,0.00,,,-99.99,VWS V12.07,2013-01-04 18:00:00,
2013-01-04 10:06:00,50.9,14.4,26.31,NNE,13,0.0,0.0,23,0.00,,,-99.99,VWS V12.07,2013-01-04 18:06:00,
2013-01-04 10:12:00,51.8,17.1,26.31,NNE,13,0.0,0.0,25,0.00,,,-99.99,VWS V12.07,2013-01-04 18:12:00,
2013-01-04 10:18:00,52.5,17.7,26.31,South,181,3.2,3.2,25,0.00,,,-99.99,VWS V12.07,2013-01-04 18:18:00,
2013-01-04 10:24:00,53.6,18.6,26.31,SSE,152,3.2,4.5,25,0.00,,,-99.99,VWS V12.07,2013-01-04 18:24:00,
2013-01-04 10:30:00,54.3,19.3,26.31,SSE,151,0.0,4.5,25,0.00,,,-99.99,VWS V12.07,2013-01-04 18:30:00,
2013-01-04 10:36:00,54.5,19.4,26.31,SW,216,0.0,4.5,25,0.00,,,-99.99,VWS V12.07,2013-01-04 18:36:00,
2013-01-04 10:42:00,54.7,19.6,26.31,SW,219,3.2,3.6,25,0.00,,,-99.99,VWS V12.07,2013-01-04 18:42:00,
2013-01-04 10:48:00,54.7,19.6,26.31,SW,220,3.2,3.6,25,0.00,,,-99.99,VWS V12.07,2013-01-04 18:48:00,
2013-01-04 10:54:00,55.0,19.9,26.31,SW,220,3.2,4.0,25,0.00,,,-99.99,VWS V12.07,2013-01-04 18:54:00,
2013-01-04 11:00:00,55.6,19.4,26.31,SW,220,0.0,4.0,24,0.00,,,-99.99,VWS V12.07,2013-01-04 19:00:00,
2013-01-04 11:06:00,55.4,19.2,26.31,SSE,152,0.0,0.0,24,0.00,,,-99.99,VWS V12.07,2013-01-04 19:06:00,
2013-01-04 11:12:00,55.6,19.4,26.31,West,265,4.3,4.3,24,0.00,,,-99.99,VWS V12.07,2013-01-04 19:12:00,
2013-01-04 11:18:00,55.8,19.5,26.31,West,274,3.2,4.0,24,0.00,,,-99.99,VWS V12.07,2013-01-04 19:18:00,
2013-01-04 11:24:00,55.8,19.5,26.31,SW,233,0.0,4.0,24,0.00,,,-99.99,VWS V12.07,2013-01-04 19:24:00,
2013-01-04 11:30:00,56.3,20.0,26.31,SW,221,4.3,4.9,24,0.00,,,-99.99,VWS V12.07,2013-01-04 19:30:00,
2013-01-04 11:36:00,56.8,20.5,26.31,SW,220,0.0,5.8,24,0.00,,,-99.99,VWS V12.07,2013-01-04 19:36:00,
2013-01-04 11:42:00,56.8,20.5,26.28,SW,220,0.0,0.0,24,0.00,,,-99.99,VWS V12.07,2013-01-04 19:42:00,
2013-01-04 11:48:00,56.3,20.0,26.28,SW,219,0.0,4.0,24,0.00,,,-99.99,VWS V12.07,2013-01-04 19:48:00,
2013-01-04 11:54:00,56.7,20.3,26.28,SW,226,0.0,4.0,24,0.00,,,-99.99,VWS V12.07,2013-01-04 19:54:00,
2013-01-04 12:00:00,57.0,20.6,26.28,SW,234,0.0,5.8,24,0.00,,,-99.99,VWS V12.07,2013-01-04 20:00:00,
2013-01-04 12:06:00,57.2,20.8,26.28,WSW,239,0.0,0.0,24,0.00,,,-99.99,VWS V12.07,2013-01-04 20:06:00,
2013-01-04 12:12:00,57.4,20.9,26.28,SW,234,5.9,5.9,24,0.00,,,-99.99,VWS V12.07,2013-01-04 20:12:00,
2013-01-04 12:18:00,57.6,21.1,26.28,SW,218,0.0,4.9,24,0.00,,,-99.99,VWS V12.07,2013-01-04 20:18:00,
2013-01-04 12:24:00,57.7,21.2,26.28,WSW,258,0.0,0.0,24,0.00,,,-99.99,VWS V12.07,2013-01-04 20:24:00,
2013-01-04 12:30:00,57.4,20.9,26.28,WSW,258,0.0,4.9,24,0.00,,,-99.99,VWS V12.07,2013-01-04 20:30:00,
2013-01-04 12:36:00,57.0,20.6,26.28,WSW,258,0.0,4.9,24,0.00,,,-99.99,VWS V12.07,2013-01-04 20:36:00,
2013-01-04 12:42:00,56.8,20.5,26.25,West,280,4.8,4.8,24,0.00,,,-99.99,VWS V12.07,2013-01-04 20:42:00,
2013-01-04 12:48:00,57.2,20.8,26.25,WSW,244,2.7,4.9,24,0.00,,,-99.99,VWS V12.07,2013-01-04 20:48:00,
2013-01-04 12:54:00,57.7,21.2,26.25,WSW,245,3.8,4.9,24,0.00,,,-99.99,VWS V12.07,2013-01-04 20:54:00,
2013-01-04 13:00:00,57.9,21.4,26.25,SW,223,0.0,4.9,24,0.00,,,-99.99,VWS V12.07,2013-01-04 21:00:00,
2013-01-04 13:06:00,58.5,21.8,26.25,SW,220,3.2,5.4,24,0.00,,,-99.99,VWS V12.07,2013-01-04 21:06:00,
2013-01-04 13:12:00,57.9,21.4,26.25,WNW,300,0.0,5.4,24,0.00,,,-99.99,VWS V12.07,2013-01-04 21:12:00,
2013-01-04 13:18:00,57.6,21.1,26.25,East,90,0.0,5.4,24,0.00,,,-99.99,VWS V12.07,2013-01-04 21:18:00,
2013-01-04 13:24:00,58.1,21.5,26.25,NW,308,0.0,3.6,24,0.00,,,-99.99,VWS V12.07,2013-01-04 21:24:00,
2013-01-04 13:30:00,58.8,22.1,26.25,WNW,296,3.2,3.6,24,0.00,,,-99.99,VWS V12.07,2013-01-04 21:30:00,
2013-01-04 13:36:00,59.2,22.4,26.25,West,281,0.0,3.6,24,0.00,,,-99.99,VWS V12.07,2013-01-04 21:36:00,
2013-01-04 13:42:00,59.0,22.3,26.25,West,277,0.0,2.2,24,0.00,,,-99.99,VWS V12.07,2013-01-04 21:42:00,
2013-01-04 13:48:00,58.8,22.1,26.25,WNW,296,2.7,4.0,24,0.00,,,-99.99,VWS V12.07,2013-01-04 21:48:00,
2013-01-04 13:54:00,59.0,22.3,26.25,West,281,0.0,4.9,24,0.00,,,-99.99,VWS V12.07,2013-01-04 21:54:00,
2013-01-04 14:00:00,58.8,22.1,26.25,West,270,3.8,4.9,24,0.00,,,-99.99,VWS V12.07,2013-01-04 22:00:00,
2013-01-04 14:06:00,59.2,22.4,26.25,WSW,243,0.0,6.3,24,0.00,,,-99.99,VWS V12.07,2013-01-04 22:06:00,
2013-01-04 14:12:00,59.0,22.3,26.25,WSW,245,3.2,6.3,24,0.00,,,-99.99,VWS V12.07,2013-01-04 22:12:00,
2013-01-04 14:18:00,58.3,21.7,26.25,SW,236,4.8,6.3,24,0.00,,,-99.99,VWS V12.07,2013-01-04 22:18:00,
2013-01-04 14:24:00,57.9,21.4,26.25,WSW,237,4.3,4.3,24,0.00,,,-99.99,VWS V12.07,2013-01-04 22:24:00,
2013-01-04 14:30:00,58.1,21.5,26.25,WSW,239,4.3,4.3,24,0.00,,,-99.99,VWS V12.07,2013-01-04 22:30:00,
2013-01-04 14:36:00,58.1,21.5,26.25,SW,232,4.3,5.8,24,0.00,,,-99.99,VWS V12.07,2013-01-04 22:36:00,
2013-01-04 14:42:00,58.1,21.5,26.25,WSW,248,0.0,4.0,24,0.00,,,-99.99,VWS V12.07,2013-01-04 22:42:00,
2013-01-04 14:48:00,57.9,21.4,26.25,WSW,248,0.0,4.0,24,0.00,,,-99.99,VWS V12.07,2013-01-04 22:48:00,
2013-01-04 14:54:00,58.1,21.5,26.25,West,277,3.2,4.9,24,0.00,,,-99.99,VWS V12.07,2013-01-04 22:54:00,
2013-01-04 15:00:00,58.6,22.0,26.25,WSW,255,2.7,4.9,24,0.00,,,-99.99,VWS V12.07,2013-01-04 23:00:00,
2013-01-04 15:06:00,58.1,21.5,26.25,WSW,251,3.2,4.0,24,0.00,,,-99.99,VWS V12.07,2013-01-04 23:06:00,
2013-01-04 15:12:00,57.7,21.2,26.25,SW,222,3.2,4.0,24,0.00,,,-99.99,VWS V12.07,2013-01-04 23:12:00,
2013-01-04 15:18:00,58.1,21.5,26.25,WSW,240,3.8,4.0,24,0.00,,,-99.99,VWS V12.07,2013-01-04 23:18:00,
2013-01-04 15:24:00,58.1,21.5,26.25,SW,236,2.7,3.6,24,0.00,,,-99.99,VWS V12.07,2013-01-04 23:24:00,
2013-01-04 15:30:00,57.7,21.2,26.25,SW,236,0.0,3.6,24,0.00,,,-99.99,VWS V12.07,2013-01-04 23:30:00,
2013-01-04 15:36:00,57.7,21.2,26.25,SW,236,0.0,4.0,24,0.00,,,-99.99,VWS V12.07,2013-01-04 23:36:00,
2013-01-04 15:42:00,57.9,21.4,26.25,SW,231,0.0,0.0,24,0.00,,,-99.99,VWS V12.07,2013-01-04 23:42:00,
2013-01-04 15:48:00,57.7,21.2,26.25,SW,231,0.0,2.7,24,0.00,,,-99.99,VWS V12.07,2013-01-04 23:48:00,
2013-01-04 15:54:00,57.0,20.6,26.25,SW,231,2.7,2.7,24,0.00,,,-99.99,VWS V12.07,2013-01-04 23:54:00,
2013-01-04 16:00:00,56.3,20.0,26.25,SW,231,0.0,0.0,24,0.00,,,-99.99,VWS V12.07,2013-01-05 00:00:00,
2013-01-04 16:06:00,55.6,19.4,26.25,WSW,256,2.7,2.7,24,0.00,,,-99.99,VWS V12.07,2013-01-05 00:06:00,
2013-01-04 16:12:00,54.7,19.6,26.25,WSW,256,0.0,2.2,25,0.00,,,-99.99,VWS V12.07,2013-01-05 00:12:00,
2013-01-04 16:18:00,54.1,19.1,26.25,WSW,256,0.0,2.2,25,0.00,,,-99.99,VWS V12.07,2013-01-05 00:18:00,
2013-01-04 16:24:00,53.4,18.5,26.25,WSW,256,0.0,0.0,25,0.00,,,-99.99,VWS V12.07,2013-01-05 00:24:00,
2013-01-04 16:30:00,52.0,17.3,26.25,WSW,256,0.0,0.0,25,0.00,,,-99.99,VWS V12.07,2013-01-05 00:30:00,
2013-01-04 16:36:00,50.5,14.1,26.25,WSW,256,0.0,0.0,23,0.00,,,-99.99,VWS V12.07,2013-01-05 00:36:00,
2013-01-04 16:42:00,49.5,13.2,26.25,WSW,256,0.0,0.0,23,0.00,,,-99.99,VWS V12.07,2013-01-05 00:42:00,
2013-01-04 16:48:00,48.7,12.6,26.25,WSW,256,0.0,0.0,23,0.00,,,-99.99,VWS V12.07,2013-01-05 00:48:00,
2013-01-04 16:54:00,47.5,12.5,26.28,WSW,256,0.0,0.0,24,0.00,,,-99.99,VWS V12.07,2013-01-05 00:54:00,
2013-01-04 17:00:00,46.6,11.7,26.28,WSW,256,0.0,0.0,24,0.00,,,-99.99,VWS V12.07,2013-01-05 01:00:00,
2013-01-04 17:06:00,45.7,11.0,26.28,WSW,256,0.0,0.0,24,0.00,,,-99.99,VWS V12.07,2013-01-05 01:06:00,
2013-01-04 17:12:00,44.8,10.2,26.28,WSW,256,0.0,0.0,24,0.00,,,-99.99,VWS V12.07,2013-01-05 01:12:00,
2013-01-04 17:18:00,43.3,9.9,26.28,WSW,256,0.0,0.0,25,0.00,,,-99.99,VWS V12.07,2013-01-05 01:18:00,
2013-01-04 17:24:00,42.3,9.0,26.28,WSW,256,0.0,0.0,25,0.00,,,-99.99,VWS V12.07,2013-01-05 01:24:00,
2013-01-04 17:30:00,41.5,8.4,26.28,WSW,256,0.0,0.0,25,0.00,,,-99.99,VWS V12.07,2013-01-05 01:30:00,
2013-01-04 17:36:00,40.5,7.4,26.28,WSW,256,0.0,0.0,25,0.00,,,-99.99,VWS V12.07,2013-01-05 01:36:00,
2013-01-04 17:42:00,39.7,6.8,26.28,WSW,256,0.0,0.0,25,0.00,,,-99.99,VWS V12.07,2013-01-05 01:42:00,
2013-01-04 17:48:00,39.2,6.3,26.28,WSW,256,0.0,0.0,25,0.00,,,-99.99,VWS V12.07,2013-01-05 01:48:00,
2013-01-04 17:54:00,38.8,6.9,26.28,WSW,256,0.0,0.0,26,0.00,,,-99.99,VWS V12.07,2013-01-05 01:54:00,
2013-01-04 18:00:00,38.1,6.3,26.28,WSW,256,0.0,0.0,26,0.00,,,-99.99,VWS V12.07,2013-01-05 02:00:00,
2013-01-04 18:06:00,37.4,5.7,26.28,WSW,256,0.0,0.0,26,0.00,,,-99.99,VWS V12.07,2013-01-05 02:06:00,
2013-01-04 18:12:00,36.9,3.5,26.28,WSW,256,0.0,0.0,24,0.00,,,-99.99,VWS V12.07,2013-01-05 02:12:00,
2013-01-04 18:18:00,36.7,3.3,26.28,WSW,256,0.0,0.0,24,0.00,,,-99.99,VWS V12.07,2013-01-05 02:18:00,
2013-01-04 18:24:00,36.0,2.7,26.28,WSW,256,0.0,0.0,24,0.00,,,-99.99,VWS V12.07,2013-01-05 02:24:00,
2013-01-04 18:30:00,35.1,1.9,26.28,WSW,256,0.0,0.0,24,0.00,,,-99.99,VWS V12.07,2013-01-05 02:30:00,
2013-01-04 18:36:00,34.9,1.8,26.28,WSW,256,0.0,0.0,24,0.00,,,-99.99,VWS V12.07,2013-01-05 02:36:00,
2013-01-04 18:42:00,34.3,1.3,26.28,WSW,256,0.0,0.0,24,0.00,,,-99.99,VWS V12.07,2013-01-05 02:42:00,
2013-01-04 18:48:00,33.8,0.8,26.28,WSW,256,0.0,0.0,24,0.00,,,-99.99,VWS V12.07,2013-01-05 02:48:00,
2013-01-04 18:54:00,33.3,1.2,26.28,WSW,256,0.0,0.0,25,0.00,,,-99.99,VWS V12.07,2013-01-05 02:54:00,
2013-01-04 19:00:00,32.7,0.8,26.28,WSW,256,0.0,0.0,25,0.00,,,-99.99,VWS V12.07,2013-01-05 03:00:00,
2013-01-04 19:06:00,32.4,0.5,26.28,WSW,256,0.0,0.0,25,0.00,,,-99.99,VWS V12.07,2013-01-05 03:06:00,
2013-01-04 19:12:00,32.2,0.3,26.28,WSW,256,0.0,0.0,25,0.00,,,-99.99,VWS V12.07,2013-01-05 03:12:00,
2013-01-04 19:18:00,31.6,-0.1,26.28,WSW,256,0.0,0.0,25,0.00,,,-99.99,VWS V12.07,2013-01-05 03:18:00,
2013-01-04 19:24:00,30.9,-0.8,26.28,WSW,256,0.0,0.0,25,0.00,,,-99.99,VWS V12.07,2013-01-05 03:24:00,
2013-01-04 19:30:00,30.4,-1.2,26.28,WSW,256,0.0,0.0,25,0.00,,,-99.99,VWS V12.07,2013-01-05 03:30:00,
2013-01-04 19:36:00,30.2,-1.4,26.28,WSW,256,0.0,0.0,25,0.00,,,-99.99,VWS V12.07,2013-01-05 03:36:00,
2013-01-04 19:42:00,30.0,-1.5,26.28,WSW,256,0.0,0.0,25,0.00,,,-99.99,VWS V12.07,2013-01-05 03:42:00,
2013-01-04 19:48:00,29.5,-2.0,26.28,WSW,256,0.0,0.0,25,0.00,,,-99.99,VWS V12.07,2013-01-05 03:48:00,
2013-01-04 19:54:00,29.1,-3.2,26.28,WSW,256,0.0,0.0,24,0.00,,,-99.99,VWS V12.07,2013-01-05 03:54:00,
2013-01-04 20:00:00,28.8,-3.5,26.28,WSW,256,0.0,0.0,24,0.00,,,-99.99,VWS V12.07,2013-01-05 04:00:00,
2013-01-04 20:06:00,28.4,-3.8,26.28,WSW,256,0.0,0.0,24,0.00,,,-99.99,VWS V12.07,2013-01-05 04:06:00,
2013-01-04 20:12:00,28.0,-4.1,26.28,WSW,256,0.0,0.0,24,0.00,,,-99.99,VWS V12.07,2013-01-05 04:12:00,
2013-01-04 20:18:00,28.0,-4.1,26.28,WSW,256,0.0,0.0,24,0.00,,,-99.99,VWS V12.07,2013-01-05 04:18:00,
2013-01-04 20:24:00,27.9,-4.2,26.28,WSW,256,0.0,0.0,24,0.00,,,-99.99,VWS V12.07,2013-01-05 04:24:00,
2013-01-04 20:30:00,27.7,-4.4,26.28,WSW,256,0.0,0.0,24,0.00,,,-99.99,VWS V12.07,2013-01-05 04:30:00,
2013-01-04 20:36:00,27.3,-4.7,26.28,WSW,256,0.0,0.0,24,0.00,,,-99.99,VWS V12.07,2013-01-05 04:36:00,
2013-01-04 20:42:00,27.0,-5.0,26.31,WSW,256,0.0,0.0,24,0.00,,,-99.99,VWS V12.07,2013-01-05 04:42:00,
2013-01-04 20:48:00,26.8,-5.2,26.31,WSW,256,0.0,0.0,24,0.00,,,-99.99,VWS V12.07,2013-01-05 04:48:00,
2013-01-04 20:56:00,26.4,-4.6,26.31,WSW,256,0.0,0.0,25,0.00,,,-99.99,VWS V12.07,2013-01-05 04:56:00,
2013-01-04 21:00:00,26.2,-4.8,26.31,WSW,256,0.0,0.0,25,0.00,,,-99.99,VWS V12.07,2013-01-05 05:00:00,
2013-01-04 21:02:00,26.2,-4.8,26.31,WSW,256,0.0,0.0,25,0.00,,,-99.99,VWS V12.07,2013-01-05 05:02:00,
2013-01-04 21:04:00,26.2,-4.8,26.31,WSW,256,0.0,0.0,25,0.00,,,-99.99,VWS V12.07,2013-01-05 05:04:00,
2013-01-04 21:08:00,26.2,-4.8,26.31,WSW,256,0.0,0.0,25,0.00,,,-99.99,VWS V12.07,2013-01-05 05:08:00,
2013-01-04 21:14:00,26.1,-4.9,26.31,WSW,256,0.0,0.0,25,0.00,,,-99.99,VWS V12.07,2013-01-05 05:14:00,
2013-01-04 21:20:00,25.7,-5.2,26.31,WSW,256,0.0,0.0,25,0.00,,,-99.99,VWS V12.07,2013-01-05 05:20:00,
2013-01-04 21:26:00,25.5,-5.4,26.31,WSW,256,0.0,0.0,25,0.00,,,-99.99,VWS V12.07,2013-01-05 05:26:00,
2013-01-04 21:32:00,25.3,-5.6,26.31,WSW,256,0.0,0.0,25,0.00,,,-99.99,VWS V12.07,2013-01-05 05:32:00,
2013-01-04 21:38:00,25.2,-5.7,26.31,WSW,256,0.0,0.0,25,0.00,,,-99.99,VWS V12.07,2013-01-05 05:38:00,
2013-01-04 21:44:00,25.2,-5.7,26.31,WSW,256,0.0,0.0,25,0.00,,,-99.99,VWS V12.07,2013-01-05 05:44:00,
2013-01-04 21:50:00,25.2,-5.7,26.31,WSW,256,0.0,0.0,25,0.00,,,-99.99,VWS V12.07,2013-01-05 05:50:00,
2013-01-04 21:56:00,25.2,-5.7,26.31,WSW,256,0.0,0.0,25,0.00,,,-99.99,VWS V12.07,2013-01-05 05:56:00,
2013-01-04 22:02:00,25.0,-5.9,26.31,WSW,256,0.0,0.0,25,0.00,,,-99.99,VWS V12.07,2013-01-05 06:02:00,
2013-01-04 22:08:00,24.8,-6.0,26.31,WSW,256,0.0,0.0,25,0.00,,,-99.99,VWS V12.07,2013-01-05 06:08:00,
2013-01-04 22:14:00,25.0,-5.9,26.31,WSW,256,0.0,0.0,25,0.00,,,-99.99,VWS V12.07,2013-01-05 06:14:00,
2013-01-04 22:20:00,24.8,-6.0,26.31,WSW,256,0.0,0.0,25,0.00,,,-99.99,VWS V12.07,2013-01-05 06:20:00,
2013-01-04 22:26:00,24.6,-6.2,26.31,WSW,256,0.0,0.0,25,0.00,,,-99.99,VWS V12.07,2013-01-05 06:26:00,
2013-01-04 22:32:00,24.4,-6.3,26.31,WSW,256,0.0,0.0,25,0.00,,,-99.99,VWS V12.07,2013-01-05 06:32:00,
2013-01-04 22:38:00,24.3,-6.5,26.31,WSW,256,0.0,0.0,25,0.00,,,-99.99,VWS V12.07,2013-01-05 06:38:00,
2013-01-04 22:44:00,24.1,-6.6,26.31,WSW,256,0.0,0.0,25,0.00,,,-99.99,VWS V12.07,2013-01-05 06:44:00,
2013-01-04 22:50:00,24.1,-6.6,26.31,WSW,256,0.0,0.0,25,0.00,,,-99.99,VWS V12.07,2013-01-05 06:50:00,
2013-01-04 22:56:00,23.9,-6.8,26.31,WSW,256,0.0,0.0,25,0.00,,,-99.99,VWS V12.07,2013-01-05 06:56:00,
2013-01-04 23:02:00,23.9,-6.8,26.31,WSW,256,0.0,0.0,25,0.00,,,-99.99,VWS V12.07,2013-01-05 07:02:00,
2013-01-04 23:08:00,23.5,-7.1,26.31,WSW,256,0.0,0.0,25,0.00,,,-99.99,VWS V12.07,2013-01-05 07:08:00,
2013-01-04 23:14:00,23.5,-7.1,26.31,WSW,256,0.0,0.0,25,0.00,,,-99.99,VWS V12.07,2013-01-05 07:14:00,
2013-01-04 23:20:00,23.4,-7.3,26.31,WSW,256,0.0,0.0,25,0.00,,,-99.99,VWS V12.07,2013-01-05 07:20:00,
2013-01-04 23:26:00,23.2,-7.4,26.31,WSW,256,0.0,0.0,25,0.00,,,-99.99,VWS V12.07,2013-01-05 07:26:00,
2013-01-04 23:32:00,23.2,-7.4,26.31,WSW,256,0.0,0.0,25,0.00,,,-99.99,VWS V12.07,2013-01-05 07:32:00,
2013-01-04 23:38:00,23.2,-7.4,26.31,WSW,256,0.0,0.0,25,0.00,,,-99.99,VWS V12.07,2013-01-05 07:38:00,
2013-01-04 23:44:00,22.8,-6.9,26.31,WSW,256,0.0,0.0,26,0.00,,,-99.99,VWS V12.07,2013-01-05 07:44:00,
2013-01-04 23:50:00,22.8,-6.9,26.31,WSW,256,0.0,0.0,26,0.00,,,-99.99,VWS V12.07,2013-01-05 07:50:00,
2013-01-04 23:56:00,22.8,-6.9,26.31,WSW,256,0.0,0.0,26,0.00,,,-99.99,VWS V12.07,2013-01-05 07:56:00,